This demonstration page uses our WeatherBlox Daily Observations layout. Learn more.

Left ArrowRight Arrow

Hourly Observations for June 13, 2021

Temp ( °F °C ) Dew Point ( °F °C ) Humidity (%) Winds ( mph kmh ) Pressure ( in mb ) Visibility ( mi km ) Precip ( " mm )
12:53 am 00:53 Clear 75 23.9 68 20 79 79 Calm 29.86 1011 10 16 0.00 0.00
1:53 am 01:53 Clear 72 22.2 68 20 87 87 NE 3 6 29.84 1011 10 16 0.00 0.00
2:53 am 02:53 Clear 70 21.1 68 20 93 93 Calm 29.83 1010 10 16 0.00 0.00
3:53 am 03:53 Mostly Clear 70 21.1 68 20 93 93 Calm 29.83 1010 10 16 0.00 0.00
4:53 am 04:53 Clear 71 21.7 68 20 90 90 Calm 29.84 1011 10 16 0.00 0.00
5:53 am 05:53 Clear 69 20.6 67 19.4 93 93 Calm 29.85 1011 10 16 0.00 0.00
6:53 am 06:53 Sunny 69 20.6 67 19.4 93 93 NNW 3 6 29.87 1012 10 16 0.00 0.00
7:53 am 07:53 Sunny 73 22.8 69 20.6 87 87 N 3 6 29.89 1012 10 16 0.00 0.00
8:53 am 08:53 Partly Cloudy 76 24.4 69 20.6 79 79 E 6 9 29.91 1013 10 16 0.00 0.00
9:53 am 09:53 Cloudy 77 25 69 20.6 77 77 Calm 29.93 1013 10 16 0.00 0.00
10:53 am 10:53 Cloudy 79 26.1 69 20.6 72 72 ENE 3 6 29.93 1014 10 16 0.00 0.00
11:13 am 11:13 Cloudy 80 26.7 70 21.1 71 71 NNE 5 7 29.93 1013 10 16 0.00 0.00
11:38 am 11:38 Mostly Cloudy 81 27.2 69 20.6 67 67 Calm 29.93 1013 10 16 0.00 0.00
11:53 am 11:53 Mostly Sunny 81 27.2 70 21.1 69 69 VRB 5 7 29.93 1014 10 16 0.00 0.00
12:53 pm 12:53 Mostly Cloudy 85 29.4 69 20.6 59 59 ENE 5 7 29.93 1013 10 16 0.00 0.00
1:53 pm 13:53 Mostly Sunny 86 30 69 20.6 57 57 Calm 29.91 1013 10 16 0.00 0.00
2:53 pm 14:53 Partly Cloudy 86 30 68 20 55 55 Calm 29.88 1012 10 16 0.00 0.00
3:53 pm 15:53 Partly Cloudy 88 31.1 68 20 52 52 VRB 5 7 29.85 1011 10 16 0.00 0.00
4:53 pm 16:53 Partly Cloudy 88 31.1 65 18.3 46 46 E 3 6 29.83 1010 10 16 0.00 0.00
5:53 pm 17:53 Mostly Cloudy 89 31.7 65 18.3 45 45 VRB 3 6 29.81 1010 10 16 0.00 0.00
6:53 pm 18:53 Partly Cloudy 89 31.7 65 18.3 45 45 Calm 29.81 1010 10 16 0.00 0.00
7:53 pm 19:53 Partly Cloudy 87 30.6 65 18.3 48 48 ESE 5 7 29.83 1010 10 16 0.00 0.00
8:53 pm 20:53 Clear 85 29.4 67 19.4 55 55 SE 3 6 29.85 1011 10 16 0.00 0.00
9:53 pm 21:53 Partly Cloudy 83 28.3 68 20 61 61 SW 5 7 29.86 1011 10 16 0.00 0.00
10:53 pm 22:53 Mostly Cloudy 81 27.2 69 20.6 67 67 Calm 29.89 1012 10 16 0.00 0.00
11:53 pm 23:53 Clear 79 26.1 70 21.1 74 74 Calm 29.89 1012 10 16 0.00 0.00

Powered by AerisWeather